Weather Roundup
Issued by NWS Springfield, MO

Home | Current Version | Previous Version | Text Only | Print | Product List | Glossary On
Versions: 1 2 3 4 5 6 7 8 9 10 11 12 13 14 15 16 17 18 19 20 21 22 23 24 25 26 27 28 29 30 31 32 33 34 35 36 37 38 39 40 41 42 43 44 45 46 47 48 49 50
000
NZUS99 KSGF 260707
HRRSGF

HOURLY WEATHER
NATIONAL WEATHER SERVICE SPRINGFIELD MO
200 AM CDT FRI AUG 26 2016

......SGF CWA......

CITY           SKY/WX    TMP DP  RH WIND       PRES   REMARKS
SPRINGFIELD    FAIR      74  69  85 S7        30.07F
JOPLIN         FAIR      71  68  90 S7        30.07F
WEST PLAINS    FAIR      76  71  85 W3        30.11F
ROLLA          FAIR      71  68  90 SE3       30.08F
OSAGE BEACH    FAIR      69  68  96 SE6       30.08F

......SURROUNDING SGF CWA......

CITY           SKY/WX    TMP DP  RH WIND       PRES   REMARKS
CHANUTE        MOCLDY    74  68  81 W10       30.11R
PARSONS        MOCLDY    71  69  93 W5        30.10R
COFFEYVILLE    MOCLDY    73  68  84 NW8       30.10R
EMPORIA        HVY RAIN  69  68  96 N3        30.10R FOG
GROVE OK       FAIR      75  68  78 S3        30.09R
ROGERS AR      FAIR      74  67  78 S8        30.10S
SILOAM SPRINGS FAIR      72  61  68 S6        30.11S
HARRISON AR    FAIR      75  67  76 S5        30.08F
NEAR YELLVILLE FAIR      75  70  83 E3        30.05S

......KANSAS AND MISSOURI......

CITY           SKY/WX    TMP DP  RH WIND       PRES   REMARKS
KANSAS CTY INT LGT RAIN  70  63  78 NE7       30.10S
DOWNTOWN KC    LGT RAIN  71  68  90 NE7       30.08F
COLUMBIA       FAIR      74  73  97 CALM      30.08F
SEDALIA        CLOUDY    73  70  90 NE5       30.08R
ST JOSEPH      FAIR      66  63  90 VRB5      30.11S FOG
ST LOUIS       MOCLDY    77  70  79 E5        30.07F
SPIRIT OF STL  FAIR      74  71  91 E5        30.05F
KIRKSVILLE     CLOUDY    69  65  86 NE6       30.12S
WICHITA        CLOUDY    72  68  87 E10       30.07F
TOPEKA         CLOUDY    70  64  81 NE3       30.10S
OLATHE         LGT RAIN  70  70 100 NE7       30.09S FOG

......TENNESSEE......

CITY           SKY/WX    TMP DP  RH WIND       PRES   REMARKS
MEMPHIS        FAIR      78  73  84 W5        30.06F
NASHVILLE      FAIR      77  74  90 CALM      30.11F

......ARKANSAS.......

CITY           SKY/WX    TMP DP  RH WIND       PRES   REMARKS
FAYETTEVILLE   FAIR      73  67  81 S3        30.09F
FT SMITH       FAIR      75  69  81 E3        30.06F
LITTLE ROCK    CLOUDY    76  72  87 N3        30.06F

......OKLAHOMA.......

CITY           SKY/WX    TMP DP  RH WIND       PRES   REMARKS
TULSA          CLOUDY    77  70  79 S5        30.05F
PONCA CITY     LGT RAIN  70  65  84 VRB3      30.09S
MCALESTER      FAIR      77  68  73 S5        30.10R
OKLAHOMA CITY  MOCLDY    73  65  75 E10       30.09R

......IOWA............

CITY           SKY/WX    TMP DP  RH WIND       PRES   REMARKS
DES MOINES     FAIR      65  62  90 N3        30.13S
QUAD CITIES    FAIR      64  62  93 CALM      30.11S FOG

......ILLINOIS........

CITY           SKY/WX    TMP DP  RH WIND       PRES   REMARKS
QUINCY         MOCLDY    69  69 100 NE7       30.10S
CHICAGO        MOCLDY    68  63  84 NW7       30.10S



USA.gov is the U.S. government's official web portal to all federal, state and local government web resources and services.